EHI
0 0 0 0 0 0 0 0 0 0 0 0 0 0 0 0 0 0 2 6 9 14 23 35 53 72 86 94 99 100 100 100 100 100 100 100 98 90 76 61 52 48 46 42
0 0 0 0 0 0 0 0 0 0 0 0 0 0 0 0 0 3 7 13 20 28 39 50 63 75 86 95 99 100 100 100 100 100 100 98 93 80 63 50 41 36 33 29
0 0 0 0 0 0 0 0 0 0 0 0 0 0 0 0 2 8 18 27 39 51 61 69 74 81 89 95 99 100 100 100 99 99 96 91 80 62 46 36 27 20 16 13
0 0 0 0 0 0 0 0 0 0 0 0 0 0 0 0 5 17 32 46 60 69 75 78 80 84 90 93 95 95 96 95 94 92 89 79 64 47 33 24 16 9 5 4
0 0 0 0 0 0 0 0 0 0 0 0 0 0 0 2 12 31 50 65 75 78 78 75 75 78 82 84 85 84 84 83 81 79 75 64 50 35 21 12 7 3 1 1
0 0 0 0 0 0 0 0 0 0 0 0 0 0 5 17 35 56 71 78 77 70 62 57 57 62 66 69 69 69 68 65 62 60 55 46 34 21 11 4 1 0 0 0
0 0 0 0 0 0 0 0 0 0 0 0 0 3 19 47 69 79 80 73 59 44 35 33 34 39 43 45 46 46 44 40 38 35 30 24 15 8 4 1 0 0 0 0
0 0 0 0 0 0 0 0 0 0 0 0 1 13 41 71 85 82 70 51 31 19 15 15 16 18 20 22 21 20 18 16 14 12 9 6 4 1 0 0 0 0 0 0
0 0 0 0 0 0 0 0 0 0 0 0 3 21 53 76 80 70 50 26 12 8 7 6 5 5 6 7 6 6 5 4 3 1 0 0 0 0 0 0 0 0 0 0
0 0 0 0 0 0 0 0 0 0 0 0 2 16 43 66 70 54 31 13 5 3 3 2 1 1 1 1 1 2 2 1 1 0 0 0 0 0 0 0 0 0 0 0
0 0 0 0 0 0 0 0 0 0 0 0 1 10 33 58 62 41 17 5 2 1 1 0 0 0 0 0 0 1 1 0 0 0 0 0 0 0 0 0 0 0 0 0
0 0 0 0 0 0 0 0 0 0 0 0 1 14 40 61 54 29 9 1 1 0 0 0 0 0 0 0 0 0 0 0 0 0 0 0 0 0 0 0 0 0 0 0
0 0 0 0 0 0 0 0 0 0 0 0 2 18 46 55 39 17 3 0 0 0 0 0 0 0 0 0 0 0 0 0 0 0 0 0 0 0 0 0 0 0 0 0
0 0 0 0 0 0 0 0 0 0 0 1 2 15 34 36 20 6 0 0 0 0 0 0 0 0 0 0 0 0 0 0 0 0 0 0 0 0 0 0 0 0 0 0
0 0 0 0 0 0 0 0 0 0 2 3 4 10 19 18 9 2 0 0 0 0 0 0 0 0 0 0 0 0 0 0 0 0 0 0 0 0 0 0 0 0 0 0
0 0 0 0 0 0 0 0 0 1 3 5 6 8 10 9 4 1 0 0 0 0 0 0 0 0 0 0 0 0 0 0 0 0 0 0 0 0 0 0 0 0 0 0
0 0 0 0 0 0 0 0 0 1 3 4 5 5 5 4 2 0 0 0 0 0 0 0 0 0 0 0 0 0 0 0 0 0 0 0 0 0 0 0 0 0 0 0
0 0 0 0 0 0 0 0 0 0 1 1 1 1 1 1 0 0 0 0 0 0 0 0 0 0 0 0 0 0 0 0 0 0 0 0 0 0 0 0 0 0 0 0
0 0 0 0 0 0 0 0 0 0 0 0 0 0 0 0 0 0 0 0 0 0 0 0 0 0 0 0 0 0 0 0 0 0 0 0 0 0 0 0 0 0 0 0
0 0 0 0 0 0 0 0 0 0 0 0 0 0 0 0 0 0 0 0 0 0 0 0 0 0 0 0 0 0 0 0 0 0 0 0 0 0 0 0 0 0 0 0
0 0 0 0 0 0 0 0 0 0 0 0 0 0 0 0 0 0 0 0 0 0 0 0 0 0 0 0 0 0 0 0 0 0 0 0 0 0 0 0 0 0 0 0
0 0 0 0 0 0 0 0 0 0 0 0 0 0 0 0 0 0 0 0 0 0 0 0 0 0 0 0 0 0 0 0 0 0 0 0 0 0 0 0 0 0 0 0
0 0 0 0 0 0 0 0 0 0 0 0 0 0 0 0 0 0 0 0 0 0 0 0 0 0 0 0 0 0 0 0 0 0 0 0 0 0 0 0 0 0 0 0
0 0 0 0 0 0 0 0 0 0 0 0 0 0 0 0 0 0 0 0 0 0 0 0 0 0 0 0 0 0 0 0 0 0 0 0 0 0 0 0 0 0 0 0
0 0 0 0 0 0 0 0 0 0 0 0 0 0 0 0 0 0 0 0 0 0 0 0 0 0 0 0 0 0 0 0 0 0 0 0 0 0 0 0 0 0 0 0
0 0 0 0 0 0 0 0 0 0 0 0 0 0 0 0 0 0 0 0 0 0 0 0 0 0 0 0 0 0 0 0 0 0 0 0 0 0 0 0 0 0 0 0
Wind_Speed
14 13 14 16 18 19 19 15 16 17 16 19 17 16 15 10 11 11 10 9 8 7 7 5 5 10 11 13 14 12 11 10 10 8 8 7 6 6 5 5 6 6 4 4
14 17 17 17 17 18 19 18 16 12 12 13 13 15 15 13 11 7 4 3 2 3 7 7 6 6 8 10 12 12 11 11 10 7 5 5 6 5 5 5 6 6 5 4
19 15 17 18 16 15 15 15 15 13 9 9 8 13 16 15 11 7 4 3 6 9 10 10 10 8 6 5 8 10 11 11 10 9 7 7 6 5 4 5 5 6 6 6
18 18 13 15 16 14 12 14 15 16 12 8 12 12 16 17 13 8 6 6 9 12 13 12 11 10 9 5 4 7 9 10 10 10 10 11 7 6 5 5 6 7 7 7
16 17 14 13 14 14 13 13 15 15 13 13 12 13 14 16 17 10 7 12 13 14 15 15 15 13 11 9 7 7 9 9 9 8 9 9 7 7 7 8 9 8 8 8
15 14 14 13 12 13 12 14 13 12 12 15 16 15 14 7 8 12 13 15 16 16 16 15 14 14 14 12 10 10 12 11 9 8 8 9 10 11 11 10 9 7 6 7
13 14 13 11 12 13 12 11 8 10 12 15 15 16 8 6 15 18 17 17 15 15 14 14 13 13 14 14 14 13 14 13 12 11 10 10 11 11 11 10 9 8 6 6
13 14 15 13 13 12 13 15 12 11 11 13 17 17 6 14 18 19 18 17 15 15 13 13 12 12 12 13 13 14 15 14 14 14 13 12 11 9 8 9 9 8 7 7
5 9 12 14 13 15 14 15 16 15 17 15 10 5 12 16 17 17 17 16 15 13 13 12 12 12 12 12 13 14 15 15 14 14 14 13 12 11 11 10 10 8 7 7
7 7 7 11 12 15 16 13 9 11 13 15 12 7 9 18 16 16 15 15 14 13 13 12 11 11 11 12 12 13 14 14 13 12 12 11 11 11 10 10 10 8 7 6
6 7 6 7 10 12 13 14 12 10 12 13 11 1 6 13 16 15 15 14 14 13 12 11 10 10 11 12 12 12 13 13 13 13 12 12 11 11 11 10 9 8 7 6
5 6 6 8 9 10 11 12 11 10 11 11 10 3 8 15 17 17 15 13 13 13 12 11 11 10 11 11 11 11 11 12 12 12 12 11 11 11 10 10 9 7 6 5
9 6 7 7 5 5 8 8 9 8 7 9 10 3 9 14 15 16 15 13 12 12 12 11 10 10 10 10 10 11 11 11 12 12 12 11 11 10 10 9 7 6 5 5
4 7 7 4 7 8 10 12 11 9 8 8 5 3 8 11 13 13 14 13 12 11 11 11 10 9 9 9 10 11 11 11 11 12 12 11 10 9 8 7 6 6 5 4
5 8 8 4 7 7 5 8 11 10 9 7 4 6 7 10 12 12 12 13 12 12 11 11 10 9 9 10 10 10 10 10 10 11 11 10 8 7 7 6 6 5 4 5
5 7 10 8 6 4 3 2 5 5 7 7 9 9 10 13 12 12 12 12 12 12 11 11 10 10 9 9 9 10 9 9 9 9 9 8 7 6 6 5 5 5 5 5
7 8 9 9 6 5 2 8 8 10 13 10 9 9 12 13 11 10 11 12 12 11 11 10 9 9 8 7 7 7 7 7 7 7 7 6 6 5 4 5 6 5 5 5
6 7 6 7 6 4 6 9 8 10 15 13 14 14 15 15 14 12 11 13 12 11 10 9 9 8 7 6 6 6 7 6 6 6 5 5 4 5 5 5 5 4 3 3
3 5 6 5 4 4 7 10 10 7 12 12 13 14 15 16 15 12 10 11 11 10 10 8 8 8 6 6 5 6 6 5 5 5 5 4 5 5 4 4 3 3 2 1
2 3 6 7 6 4 5 6 6 2 7 9 10 10 9 7 6 5 7 10 11 10 8 8 7 7 6 5 5 5 4 4 4 4 4 4 4 4 4 3 3 2 1 2
6 5 5 6 3 6 10 12 8 4 5 7 10 9 8 7 8 9 10 10 10 10 9 8 7 6 5 5 4 4 4 4 4 4 4 4 3 2 3 2 1 2 2 2
6 6 6 6 4 5 12 9 9 7 8 9 11 12 13 14 14 12 11 10 10 9 9 7 6 6 4 4 4 4 4 4 3 3 3 2 1 1 3 0 1 2 3 3
4 6 5 5 5 6 9 10 9 8 9 9 10 11 13 14 13 12 11 9 9 9 8 6 6 5 4 3 3 4 4 3 3 3 3 2 1 1 0 1 2 1 2 2
4 4 1 4 7 8 9 9 9 8 8 9 10 11 12 13 13 12 10 9 8 8 7 6 6 5 4 3 3 4 3 2 2 2 1 2 2 2 1 2 2 2 4 5
4 2 2 4 7 8 9 8 8 8 8 9 10 11 13 13 13 12 10 9 8 7 6 5 5 5 6 5 4 4 3 2 1 0 1 1 1 2 2 0 3 4 6 5
4 5 3 4 5 6 7 7 7 7 7 9 11 12 12 12 13 12 10 8 8 7 6 5 5 6 5 5 4 4 3 2 1 1 1 2 1 1 2 1 4 8 7 8
Wind_Direction
205 219 223 225 226 245 260 254 239 232 207 199 218 232 240 222 205 204 202 204 187 173 173 151 147 144 153 155 151 159 166 157 157 163 165 161 146 134 124 111 108 109 111 115
207 224 233 236 234 235 255 271 270 244 206 192 214 235 244 241 221 210 211 179 140 98 75 69 71 95 143 147 154 160 163 161 163 155 148 137 129 121 113 102 93 91 90 86
224 220 223 243 245 239 246 259 268 268 220 186 221 246 253 249 231 198 178 95 53 59 53 50 41 46 72 124 155 166 165 158 154 140 131 124 112 107 111 110 92 76 78 78
229 238 224 226 244 243 245 252 266 278 266 222 206 235 237 239 230 203 173 110 73 58 51 44 40 30 41 47 120 137 142 139 139 139 145 147 147 142 127 112 96 81 71 74
222 227 233 231 235 239 244 249 247 258 269 271 245 242 244 227 218 195 134 91 74 64 58 47 39 34 34 42 64 99 111 117 125 131 137 139 128 113 108 101 96 85 73 71
237 224 231 239 237 241 242 251 246 242 250 248 248 254 252 254 198 132 105 86 75 69 63 54 45 41 39 43 58 78 88 88 94 103 114 119 117 115 113 106 102 93 87 81
229 231 222 232 243 230 229 238 232 222 228 241 234 238 234 96 92 102 102 89 79 72 65 56 49 47 46 48 54 68 76 74 74 78 85 94 102 105 106 107 103 102 96 88
212 223 215 210 231 239 216 229 238 240 235 239 224 224 158 113 103 102 100 96 86 77 70 63 56 55 54 56 59 69 75 75 73 76 77 79 84 89 92 94 99 97 95 94
258 238 209 204 214 241 232 225 244 262 278 282 265 131 112 117 116 113 108 101 92 84 77 71 64 62 63 64 66 73 78 77 76 79 80 79 80 86 92 93 93 96 103 110
300 285 228 200 207 227 246 238 238 249 265 275 274 192 167 155 138 124 114 106 99 92 84 77 73 71 71 72 73 75 79 81 82 83 86 88 88 90 92 93 93 96 98 100
289 290 266 229 215 228 231 241 250 256 257 264 273 354 83 145 136 125 115 111 106 100 93 88 82 80 80 80 80 81 83 85 85 86 89 91 92 93 93 93 93 92 93 92
318 301 289 268 260 257 250 246 248 254 262 272 280 73 86 116 120 118 114 109 104 102 99 95 92 89 86 86 86 86 87 88 89 90 91 90 90 90 91 91 91 90 89 88
342 308 289 279 275 299 294 278 268 265 268 271 279 94 78 101 108 114 116 112 107 104 100 96 92 90 91 91 91 89 90 92 94 94 92 89 88 87 87 88 88 87 84 78
295 293 296 291 288 305 308 315 317 287 262 266 291 108 108 105 111 116 117 117 113 109 105 100 93 88 87 87 87 88 87 89 91 90 89 86 86 87 88 86 81 77 74 72
329 301 306 275 223 229 282 321 322 308 310 312 29 77 104 108 112 112 113 114 112 108 102 97 90 83 80 79 79 78 79 81 86 90 90 88 86 85 84 81 76 67 52 55
333 309 308 288 258 244 255 299 293 331 2 27 68 64 83 96 102 109 111 110 106 101 98 95 90 84 80 79 80 80 78 79 82 87 91 92 93 91 90 88 77 66 56 48
321 322 309 297 310 302 11 19 22 31 32 34 55 75 89 86 87 98 106 103 100 98 97 95 92 87 82 80 85 92 93 93 92 92 96 98 95 87 78 80 75 64 56 51
322 323 305 299 319 336 50 21 24 48 51 57 80 85 86 86 78 74 90 104 108 109 107 104 100 96 91 90 92 95 96 99 105 109 107 102 98 87 79 72 65 60 50 38
359 322 306 308 316 80 38 4 360 37 56 55 86 99 108 109 90 69 72 91 103 106 106 103 103 102 99 97 98 100 101 104 104 100 98 92 85 83 79 73 66 64 50 17
305 279 288 312 330 34 25 335 320 15 74 47 81 104 122 119 92 93 97 98 100 101 103 106 105 103 104 102 102 105 108 108 105 104 99 87 74 75 73 64 44 40 353 323
336 323 327 334 12 67 1 355 355 39 75 66 78 84 88 83 103 121 115 106 106 106 107 108 107 107 110 118 120 118 121 117 109 107 101 91 91 101 95 70 12 325 314 321
342 355 7 1 23 37 9 29 52 87 98 88 89 94 98 104 111 116 117 116 116 116 116 116 113 110 115 125 130 123 117 113 114 113 111 112 100 68 99 76 294 301 312 308
24 26 6 43 74 83 64 76 90 96 97 98 103 109 115 118 120 121 120 120 119 119 119 119 121 121 126 133 135 120 125 130 128 122 123 124 95 38 28 282 287 291 312 334
95 69 54 89 108 102 92 89 86 86 95 104 111 118 122 123 124 123 122 121 121 123 128 132 128 121 118 116 115 116 108 104 104 118 152 184 192 228 243 279 312 6 20 16
0 345 32 92 115 105 88 86 85 90 98 106 114 119 124 128 129 128 126 126 128 129 126 126 124 121 115 110 105 100 98 86 84 160 248 272 260 265 264 219 41 42 66 60
45 34 36 76 77 99 104 92 92 97 103 113 119 122 127 129 127 126 125 126 125 123 123 122 117 109 107 105 95 87 89 86 51 319 304 294 288 280 304 124 112 67 103 109